TimeCST,TemperatureF,Dew PointF,Humidity,Sea Level PressureIn,VisibilityMPH,Wind Direction,Wind SpeedMPH,Gust SpeedMPH,PrecipitationIn,Events,Conditions,WindDirDegrees,DateUTC
12:10 AM,15.8,12.2,86,30.02,4.0,West,5.8,-,0.00,Snow,Light Snow,280,2013-02-04 06:10:00
12:53 AM,16.0,12.0,84,30.05,2.5,West,3.5,-,0.00,Snow,Light Snow,280,2013-02-04 06:53:00
1:27 AM,15.8,12.2,86,30.00,3.0,WNW,3.5,-,0.00,Snow,Light Snow,300,2013-02-04 07:27:00
1:53 AM,16.0,12.9,88,30.03,2.5,Calm,Calm,-,0.00,Snow,Light Snow,0,2013-02-04 07:53:00
2:06 AM,15.8,12.2,86,29.99,3.0,Calm,Calm,-,0.00,Snow,Light Snow,0,2013-02-04 08:06:00
2:28 AM,15.8,12.2,86,29.98,2.5,NNE,4.6,-,0.00,Snow,Light Snow,20,2013-02-04 08:28:00
2:41 AM,15.8,12.2,86,29.97,1.8,Calm,Calm,-,0.00,Snow,Light Snow,0,2013-02-04 08:41:00
2:50 AM,15.8,12.2,86,29.96,2.5,Calm,Calm,-,0.00,Snow,Light Snow,0,2013-02-04 08:50:00
2:53 AM,16.0,12.9,88,30.00,3.0,Calm,Calm,-,0.00,Snow,Light Snow,0,2013-02-04 08:53:00
3:06 AM,15.8,12.2,86,29.96,2.5,Calm,Calm,-,0.01,Snow,Light Snow,0,2013-02-04 09:06:00
3:18 AM,15.8,12.2,86,29.95,3.0,North,3.5,-,0.01,Snow,Light Snow,10,2013-02-04 09:18:00
3:30 AM,15.8,12.2,86,29.95,2.5,Calm,Calm,-,0.01,Snow,Light Snow,0,2013-02-04 09:30:00
4:53 AM,16.0,14.0,92,29.99,7.0,Calm,Calm,-,0.00,Snow,Light Snow,0,2013-02-04 10:53:00
5:07 AM,17.6,14.0,86,29.95,2.0,WNW,3.5,-,0.01,Snow,Light Snow,300,2013-02-04 11:07:00
5:24 AM,15.8,14.0,93,29.95,1.8,WNW,3.5,-,0.01,Snow,Light Snow,290,2013-02-04 11:24:00
5:33 AM,15.8,14.0,93,29.95,2.0,WNW,4.6,-,0.02,Snow,Light Snow,300,2013-02-04 11:33:00
5:42 AM,15.8,14.0,93,29.95,3.0,NW,4.6,-,0.02,Snow,Light Snow,310,2013-02-04 11:42:00
5:53 AM,16.0,14.0,92,29.99,4.0,NW,3.5,-,0.02,Snow,Light Snow,320,2013-02-04 11:53:00
6:53 AM,17.1,14.0,88,29.98,5.0,NNW,3.5,-,0.01,Snow,Light Snow,340,2013-02-04 12:53:00
7:10 AM,17.6,14.0,86,29.94,2.0,NNW,4.6,-,0.00,Snow,Light Snow,340,2013-02-04 13:10:00
7:26 AM,17.6,15.8,93,29.94,1.8,NNW,5.8,-,0.00,Snow,Light Snow,340,2013-02-04 13:26:00
7:38 AM,17.6,15.8,93,29.93,2.0,North,3.5,-,0.01,Snow,Light Snow,350,2013-02-04 13:38:00
7:48 AM,19.4,17.6,93,29.93,1.5,NNW,3.5,-,0.01,Snow,Light Snow,340,2013-02-04 13:48:00
7:53 AM,19.0,17.1,92,29.96,1.2,Calm,Calm,-,0.01,Snow,Light Snow,0,2013-02-04 13:53:00
8:28 AM,21.2,19.4,93,29.93,0.8,NE,9.2,-,0.01,Snow,Light Snow,50,2013-02-04 14:28:00
8:36 AM,21.2,19.4,93,29.92,1.0,NE,10.4,-,0.02,Snow,Light Snow,40,2013-02-04 14:36:00
8:53 AM,21.9,19.0,89,29.96,1.0,NNE,9.2,-,0.02,Snow,Light Snow,30,2013-02-04 14:53:00
9:03 AM,21.2,19.4,93,29.92,2.0,NNE,10.4,-,0.00,Snow,Light Snow,30,2013-02-04 15:03:00
9:21 AM,23.0,19.4,86,29.92,3.0,NNE,10.4,-,0.00,Snow,Light Snow,30,2013-02-04 15:21:00
9:49 AM,23.0,19.4,86,29.92,3.0,NNE,9.2,-,0.00,Snow,Light Snow,30,2013-02-04 15:49:00
9:53 AM,23.0,19.0,85,29.96,3.0,NNE,9.2,-,0.00,Snow,Light Snow,30,2013-02-04 15:53:00
9:58 AM,23.0,19.4,86,29.92,2.5,NNE,11.5,-,0.00,Snow,Light Snow,30,2013-02-04 15:58:00
10:19 AM,24.8,19.4,80,29.92,2.5,NNE,11.5,-,0.00,Snow,Light Snow,30,2013-02-04 16:19:00
10:53 AM,24.1,19.0,81,29.95,2.0,NNE,12.7,-,0.00,Snow,Light Snow,20,2013-02-04 16:53:00
11:15 AM,24.8,19.4,80,29.92,3.0,NNE,13.8,-,0.00,Snow,Light Snow,20,2013-02-04 17:15:00
11:44 AM,24.8,17.6,74,29.91,2.5,NNE,11.5,-,0.00,Snow,Light Snow,30,2013-02-04 17:44:00
11:53 AM,24.1,19.0,81,29.94,2.0,NNE,12.7,-,0.00,Snow,Light Snow,30,2013-02-04 17:53:00
12:20 PM,24.8,19.4,80,29.91,3.0,North,11.5,-,0.00,Snow,Light Snow,10,2013-02-04 18:20:00
12:53 PM,21.9,18.0,85,29.95,3.0,North,16.1,-,0.00,Snow,Light Snow,350,2013-02-04 18:53:00
1:41 PM,32.0,17.6,55,29.91,3.0,North,17.3,-,0.00,Snow,Light Snow,350,2013-02-04 19:41:00
1:53 PM,30.9,18.0,59,29.94,3.0,North,16.1,-,0.00,Snow,Light Snow,350,2013-02-04 19:53:00
2:05 PM,30.2,17.6,60,29.92,4.0,North,16.1,-,0.00,Snow,Light Snow,350,2013-02-04 20:05:00
2:45 PM,32.0,15.8,51,29.91,3.0,North,15.0,20.7,0.00,Snow,Light Snow,360,2013-02-04 20:45:00
2:53 PM,30.9,16.0,54,29.94,4.0,North,15.0,21.9,0.00,Snow,Light Snow,360,2013-02-04 20:53:00
3:02 PM,28.4,15.8,59,29.91,3.0,North,12.7,-,0.00,Snow,Light Snow,360,2013-02-04 21:02:00
3:08 PM,30.2,15.8,55,29.91,3.0,North,13.8,-,0.00,Snow,Light Snow,350,2013-02-04 21:08:00
3:22 PM,30.2,15.8,55,29.91,5.0,North,15.0,-,0.00,Snow,Light Snow,360,2013-02-04 21:22:00
3:37 PM,30.2,15.8,55,29.90,7.0,North,13.8,-,0.00,,Overcast,360,2013-02-04 21:37:00
3:53 PM,30.9,15.1,52,29.94,8.0,North,17.3,21.9,0.00,,Overcast,350,2013-02-04 21:53:00
4:53 PM,32.0,12.9,45,29.95,6.0,NNW,10.4,-,0.00,Snow,Light Snow,340,2013-02-04 22:53:00
5:04 PM,30.2,12.2,47,29.93,4.0,NNW,8.1,-,0.00,Snow,Light Snow,330,2013-02-04 23:04:00
5:53 PM,30.0,10.9,45,29.98,9.0,NNW,8.1,-,0.00,,Overcast,330,2013-02-04 23:53:00
6:53 PM,28.0,10.0,47,29.98,10.0,NNW,4.6,-,0.00,,Partly Cloudy,330,2013-02-05 00:53:00
7:53 PM,30.0,8.1,40,29.99,10.0,WNW,6.9,-,N/A,,Clear,300,2013-02-05 01:53:00
8:53 PM,26.1,3.9,39,30.01,10.0,NW,6.9,-,N/A,,Mostly Cloudy,320,2013-02-05 02:53:00
9:53 PM,28.9,1.9,32,30.00,10.0,NW,4.6,-,N/A,,Clear,310,2013-02-05 03:53:00
10:53 PM,28.0,1.0,31,29.98,10.0,WNW,4.6,-,N/A,,Clear,300,2013-02-05 04:53:00
11:53 PM,27.0,-0.0,31,29.99,10.0,West,6.9,-,N/A,,Clear,260,2013-02-05 05:53:00